Regional Weather Roundup
Issued by NWS

Home | Current Version | Previous Version | Text Only | Print | Product List | Glossary Off
Versions: 1 2 3 4 5 6 7 8 9 10 11 12 13 14 15 16 17 18 19 20 21 22 23 24 25 26 27 28 29 30 31 32 33 34 35 36 37 38 39 40 41 42 43 44 45 46 47 48 49 50

000
ASUS45 KABQ 230610
RWRNM
NEW MEXICO REGIONAL WEATHER ROUNDUP
NATIONAL WEATHER SERVICE ALBUQUERQUE NM
1200 AM MDT FRI JUN 23 2017

NOTE: "FAIR" MEANS FEW OR NO CLOUDS BELOW 12,000 FEET AGL WITH NO
       SIGNIFICANT WEATHER OR OBSTRUCTIONS TO VISION.

      THIS PRODUCT IS RELEASED AS TWO VERSIONS.  ONE VERSION NEAR
      THE TOP OF THE HOUR CONTAINING PRELIMINARY DATA FROM ALBUQUERQUE
      AND OTHER STATIONS.  A FINAL VERSION WITH ADDITIONAL DATA IS
      ISSUED ABOUT 10 MINUTES AFTER THE HOUR.

NMZ501-503-504-510>518-230700-
NORTHWEST PLATEAU/NORTHCENTRAL MOUNTAINS

CITY           SKY/WX    TMP DP  RH WIND       PRES   REMARKS
FARMINGTON     FAIR      73  19  13 N10       29.97R
6HR MIN TEMP:  71; 6HR MAX TEMP:  98;

LOS ALAMOS     FAIR      75  18  11 W9        30.12F
SANTA FE       FAIR      70  24  17 N5        30.03S
6HR MIN TEMP:  69; 6HR MAX TEMP:  96;

TAOS           FAIR      68  36  30 SE17      30.13R
ANGEL FIRE     FAIR      48  35  58 CALM      30.29R

$$
NMZ402-403-502-505>509-230700-
WESTCENTRAL MOUNTAINS/SOUTHWEST MOUNTAINS

CITY           SKY/WX    TMP DP  RH WIND       PRES   REMARKS
GALLUP         FAIR      63  23  21 NE5       30.10R
6HR MIN TEMP:  62; 6HR MAX TEMP:  96;

GRANTS         FAIR      64  18  17 NW5       30.11R
SILVER CITY    FAIR      78  38  23 NW10      30.01R

$$
NMZ407-409-411-412-230700-
SOUTHERN DESERTS

CITY           SKY/WX    TMP DP  RH WIND       PRES   REMARKS
DEMING         FAIR      89  39  17 W14       29.89R
6HR MIN TEMP:  87; 6HR MAX TEMP:  97;

LAS CRUCES     FAIR      87  34  14 NW6       29.87F
HOLLOMAN AFB   FAIR      90  40  17 S12       29.85S
ALAMOGORDO     FAIR      86  37  17 S5        29.85S
T OR C         FAIR      87  31  13 W10       29.91R
6HR MIN TEMP:  87; 6HR MAX TEMP: 100; 6HR PCP: TRACE;


$$
NMZ519>523-230700-
CENTRAL VALLEYS/CENTRAL HIGHLANDS

CITY           SKY/WX    TMP DP  RH WIND       PRES   REMARKS
ALBUQUERQUE    FAIR      86  23  10 N8        29.95R
6HR MIN TEMP:  85; 6HR MAX TEMP: 101;

DOUBLE EAGLE   FAIR      73  20  13 NW9       30.00S
MORIARTY ARPT  FAIR      66  34  30 N5        30.04S
6HR MIN TEMP:  63; 6HR MAX TEMP:  93;

CLINES CORNERS FAIR      71  27  19 N12       30.11R
6HR MIN TEMP:  70; 6HR MAX TEMP:  91;

BELEN          FAIR      78  20  11 NW8       29.95R
6HR MIN TEMP:  78; 6HR MAX TEMP: 102;

SOCORRO        FAIR      92  26   9 NW20G26   29.89S
6HR MIN TEMP:  86; 6HR MAX TEMP: 101;


$$
NMZ524>526-539-540-230700-
SOUTHCENTRAL MOUNTAINS

CITY           SKY/WX    TMP DP  RH WIND       PRES   REMARKS
RUIDOSO        FAIR      77  36  22 S6        30.10F

$$
NMZ527>531-230700-
NORTHEAST HIGHLANDS/NORTHEAST PLAINS

CITY           SKY/WX    TMP DP  RH WIND       PRES   REMARKS
LAS VEGAS      FAIR      65  46  50 NE14      30.15R
6HR MIN TEMP:  65; 6HR MAX TEMP:  89;

RATON          FAIR      65  49  56 N5        30.12R
6HR MIN TEMP:  64; 6HR MAX TEMP:  91;

CLAYTON        FAIR      65  56  72 N10       30.01S
6HR MIN TEMP:  64; 6HR MAX TEMP:  90; 6HR PCP: TRACE;


$$
NMZ532>537-230700-
EASTCENTRAL PLAINS

CITY           SKY/WX    TMP DP  RH WIND       PRES   REMARKS
TUCUMCARI      FAIR      80  57  45 N10       29.87R
6HR MIN TEMP:  79; 6HR MAX TEMP: 102;

CANNON AFB     CLOUDY    76  57  51 CALM      29.87R
6HR MIN TEMP:  72; 6HR MAX TEMP:  96; 6HR PCP:  0.05;

CLOVIS AIRPORT FAIR      72  62  71 NE13      29.87R

$$
NMZ028-029-538-230700-
SOUTHEAST PLAINS

CITY           SKY/WX    TMP DP  RH WIND       PRES   REMARKS
ROSWELL        FAIR      87  47  24 S9        29.79R
6HR MIN TEMP:  85; 6HR MAX TEMP: 107;

ARTESIA        FAIR      88  50  27 S13G20    29.80F
CARLSBAD       FAIR      89  52  28 E8        29.79R
6HR MIN TEMP:  88; 6HR MAX TEMP: 104; 6HR PCP: TRACE;

HOBBS          FAIR      84  46  26 SE9       29.83F


$$




USA.gov is the U.S. government's official web portal to all federal, state and local government web resources and services.